DLH242 LICC-EDDS

Flight info

Callsign DLH242
Flight time N/A
Altitude 36000
Route BUDIN DCT OKDEB DCT ATPED DCT RESIA DCT ARGAX Y170 ROMIR T125 REUTL REUTL5A
Aircraft A320/M-SDE3FGHIRWY/LB1

Departure

Time 2026-04-30 13:47
Airport Catania-Fontanarossa Airport (LICC)

Arrival

Time N/A
Airport Stuttgart Airport (EDDS)
Time Latitude Longitude Altitude Speed Heading
2026-04-30 13:37 37.46831 15.05597 42 ft 0 kts 354°
2026-04-30 13:44 37.46834 15.05595 42 ft 2 kts 337°
2026-04-30 13:44 37.46837 15.05570 40 ft 3 kts 278°
2026-04-30 13:44 37.46833 15.05545 41 ft 5 kts 236°
2026-04-30 13:45 37.46735 15.05387 40 ft 16 kts 242°
2026-04-30 13:45 37.46665 15.05250 38 ft 14 kts 229°
2026-04-30 13:45 37.46574 15.05215 37 ft 13 kts 139°
2026-04-30 13:46 37.46567 15.05330 37 ft 16 kts 84°
2026-04-30 13:46 37.46597 15.05689 33 ft 77 kts 83°
2026-04-30 13:46 37.46681 15.06631 29 ft 135 kts 84°
2026-04-30 13:46 37.46776 15.07949 246 ft 159 kts 84°
2026-04-30 13:47 37.46862 15.09333 831 ft 161 kts 80°
2026-04-30 13:47 37.47071 15.10734 1435 ft 162 kts 79°
2026-04-30 13:47 37.47277 15.12144 1963 ft 170 kts 80°
2026-04-30 13:47 37.47501 15.13701 2207 ft 192 kts 79°
2026-04-30 13:48 37.47749 15.15440 2472 ft 211 kts 80°
2026-04-30 13:48 37.48021 15.17354 2686 ft 231 kts 80°
2026-04-30 13:48 37.48318 15.19435 2825 ft 250 kts 80°
2026-04-30 13:48 37.48627 15.21627 3133 ft 259 kts 79°
2026-04-30 13:49 37.48942 15.23891 3519 ft 265 kts 79°
2026-04-30 13:49 37.49262 15.26194 3951 ft 269 kts 79°
2026-04-30 13:49 37.49587 15.28528 4396 ft 273 kts 78°
2026-04-30 13:49 37.49915 15.30891 4893 ft 275 kts 78°
2026-04-30 13:50 37.50246 15.33276 5644 ft 278 kts 79°
2026-04-30 13:50 37.50914 15.38142 7070 ft 287 kts 79°
2026-04-30 13:50 37.51258 15.40642 7754 ft 291 kts 78°
2026-04-30 13:51 37.51608 15.43179 8434 ft 297 kts 78°
2026-04-30 13:51 37.51965 15.45764 9114 ft 301 kts 78°
2026-04-30 13:51 37.52327 15.48383 9791 ft 306 kts 78°
2026-04-30 13:51 37.52693 15.51029 10251 ft 319 kts 78°
2026-04-30 13:52 37.53086 15.53886 10410 ft 342 kts 78°
2026-04-30 13:52 37.53505 15.56946 10537 ft 365 kts 78°
2026-04-30 13:52 37.53941 15.60161 10921 ft 377 kts 79°
2026-04-30 13:52 37.54381 15.63451 11502 ft 383 kts 79°
2026-04-30 13:53 37.54824 15.66780 12126 ft 388 kts 78°
2026-04-30 13:53 37.55532 15.70055 12729 ft 389 kts 64°
2026-04-30 13:53 37.56922 15.72969 13324 ft 388 kts 47°
2026-04-30 13:53 37.58889 15.75271 13930 ft 385 kts 30°
2026-04-30 13:54 37.61257 15.76796 14486 ft 381 kts 14°
2026-04-30 13:54 37.63829 15.77450 15047 ft 376 kts 359°
2026-04-30 13:54 37.66418 15.77226 15615 ft 372 kts 344°
2026-04-30 13:54 37.68850 15.76165 16177 ft 370 kts 330°
2026-04-30 13:55 37.71029 15.74444 16736 ft 370 kts 323°
2026-04-30 13:55 37.73172 15.72612 17313 ft 373 kts 323°
2026-04-30 13:55 37.75331 15.70760 17871 ft 377 kts 323°
2026-04-30 13:55 37.77507 15.68891 18421 ft 380 kts 324°
2026-04-30 13:56 37.79700 15.67008 18909 ft 382 kts 324°
2026-04-30 13:56 37.81907 15.65111 19415 ft 385 kts 324°
2026-04-30 13:56 37.84128 15.63201 19909 ft 387 kts 324°
2026-04-30 13:56 37.86359 15.61285 20411 ft 389 kts 324°
2026-04-30 13:57 37.88603 15.59355 20878 ft 391 kts 324°
2026-04-30 13:57 37.90856 15.57418 21353 ft 393 kts 324°
2026-04-30 13:57 37.93119 15.55467 21812 ft 395 kts 324°
2026-04-30 13:57 37.95397 15.53498 22263 ft 397 kts 324°
2026-04-30 13:58 37.97649 15.51549 22701 ft 398 kts 324°
2026-04-30 13:58 38.02248 15.47574 23553 ft 402 kts 324°
2026-04-30 13:58 38.04568 15.45569 23914 ft 404 kts 324°
2026-04-30 13:59 38.06894 15.43555 24273 ft 405 kts 324°
2026-04-30 13:59 38.09223 15.41536 24626 ft 407 kts 324°
2026-04-30 13:59 38.11566 15.39502 24983 ft 409 kts 324°
2026-04-30 13:59 38.13916 15.37460 25318 ft 410 kts 324°
2026-04-30 14:00 38.16280 15.35411 25653 ft 411 kts 324°
2026-04-30 14:00 38.21023 15.31292 26310 ft 414 kts 324°
2026-04-30 14:00 38.23407 15.29214 26621 ft 416 kts 324°
2026-04-30 14:01 38.25791 15.27132 26932 ft 416 kts 323°
2026-04-30 14:01 38.28177 15.25052 27240 ft 417 kts 323°
2026-04-30 14:01 38.30575 15.22962 27528 ft 418 kts 323°
2026-04-30 14:01 38.32982 15.20862 27808 ft 419 kts 323°
2026-04-30 14:02 38.35393 15.18757 28084 ft 420 kts 323°
2026-04-30 14:02 38.37808 15.16646 28351 ft 422 kts 323°
2026-04-30 14:02 38.40228 15.14523 28601 ft 423 kts 323°
2026-04-30 14:02 38.42655 15.12388 28824 ft 424 kts 323°
2026-04-30 14:03 38.45081 15.10257 29128 ft 423 kts 323°
2026-04-30 14:03 38.47542 15.08207 29470 ft 423 kts 328°
2026-04-30 14:03 38.50212 15.06597 29802 ft 424 kts 334°
2026-04-30 14:03 38.52929 15.05119 30127 ft 423 kts 333°
2026-04-30 14:04 38.55627 15.03646 30419 ft 422 kts 333°
2026-04-30 14:04 38.58323 15.02170 30704 ft 420 kts 333°
2026-04-30 14:04 38.60997 15.00699 31005 ft 418 kts 333°
2026-04-30 14:04 38.63666 14.99226 31271 ft 417 kts 333°
2026-04-30 14:05 38.66323 14.97759 31545 ft 415 kts 333°
2026-04-30 14:05 38.68973 14.96297 31832 ft 414 kts 333°
2026-04-30 14:05 38.71611 14.94845 32115 ft 412 kts 333°
2026-04-30 14:05 38.74237 14.93396 32393 ft 410 kts 333°
2026-04-30 14:06 38.76858 14.91947 32660 ft 409 kts 333°
2026-04-30 14:06 38.81188 14.89559 33092 ft 406 kts 333°
2026-04-30 14:07 38.87200 14.86230 33718 ft 403 kts 332°
2026-04-30 14:07 38.89772 14.84801 33982 ft 401 kts 332°
2026-04-30 14:07 38.92329 14.83380 34205 ft 400 kts 332°
2026-04-30 14:08 38.96604 14.80999 34515 ft 399 kts 332°
2026-04-30 14:08 38.99158 14.79578 34698 ft 399 kts 332°
2026-04-30 14:08 39.04252 14.76751 35053 ft 399 kts 332°
2026-04-30 14:09 39.06767 14.75351 35213 ft 398 kts 332°
2026-04-30 14:09 39.09308 14.73933 35405 ft 398 kts 332°
2026-04-30 14:09 39.14390 14.71097 35721 ft 398 kts 332°
2026-04-30 14:10 39.16926 14.69681 35864 ft 398 kts 332°
2026-04-30 14:10 39.19464 14.68263 36022 ft 397 kts 332°
2026-04-30 14:10 39.22034 14.66823 36065 ft 398 kts 332°
2026-04-30 14:11 39.27077 14.63989 36068 ft 398 kts 332°
2026-04-30 14:11 39.32155 14.61136 36068 ft 398 kts 332°
2026-04-30 14:12 39.37231 14.58283 36066 ft 398 kts 332°
2026-04-30 14:12 39.42303 14.55431 36065 ft 397 kts 332°
2026-04-30 14:13 39.47373 14.52568 36073 ft 398 kts 332°
2026-04-30 14:13 39.52447 14.49710 36082 ft 398 kts 332°
2026-04-30 14:14 39.57518 14.46839 36112 ft 398 kts 332°
2026-04-30 14:14 39.62593 14.43962 36100 ft 398 kts 332°
2026-04-30 14:15 39.67663 14.41080 36095 ft 398 kts 332°
2026-04-30 14:15 39.72729 14.38188 36093 ft 398 kts 332°
2026-04-30 14:16 39.77798 14.35304 36100 ft 398 kts 332°
2026-04-30 14:16 39.82872 14.32422 36098 ft 398 kts 332°
2026-04-30 14:17 39.87938 14.29521 36102 ft 398 kts 332°
2026-04-30 14:17 39.92999 14.26617 36100 ft 398 kts 332°
2026-04-30 14:18 39.98071 14.23720 36097 ft 398 kts 332°
2026-04-30 14:18 40.05668 14.19359 36110 ft 398 kts 331°
2026-04-30 14:19 40.13263 14.14978 36106 ft 398 kts 331°
2026-04-30 14:20 40.18293 14.12067 36108 ft 398 kts 331°
2026-04-30 14:20 40.25888 14.07692 36108 ft 398 kts 331°
2026-04-30 14:21 40.30979 14.04740 36127 ft 398 kts 331°
2026-04-30 14:22 40.38536 14.00350 36116 ft 398 kts 331°
2026-04-30 14:22 40.46127 13.95932 36115 ft 398 kts 331°
2026-04-30 14:23 40.56247 13.90024 36112 ft 398 kts 331°
2026-04-30 14:24 40.63839 13.85569 36117 ft 398 kts 331°
2026-04-30 14:25 40.73971 13.79646 36130 ft 398 kts 331°
2026-04-30 14:26 40.81555 13.75175 36128 ft 398 kts 330°
2026-04-30 14:27 40.89142 13.70686 36118 ft 398 kts 330°
2026-04-30 14:27 40.94201 13.67693 36124 ft 398 kts 330°
2026-04-30 14:28 41.01770 13.63209 36124 ft 397 kts 330°
2026-04-30 14:28 41.06809 13.60212 36120 ft 397 kts 330°
2026-04-30 14:29 41.16042 13.54713 36119 ft 397 kts 330°
2026-04-30 14:31 41.29466 13.46692 36128 ft 397 kts 330°
2026-04-30 14:31 41.37032 13.42160 36128 ft 398 kts 330°
2026-04-30 14:32 41.44604 13.37605 36139 ft 397 kts 330°
2026-04-30 14:33 41.49634 13.34576 36156 ft 397 kts 330°
2026-04-30 14:33 41.57183 13.30014 36147 ft 397 kts 330°
2026-04-30 14:34 41.62217 13.26968 36147 ft 397 kts 330°
2026-04-30 14:34 41.67248 13.23909 36158 ft 397 kts 330°
2026-04-30 14:35 41.74806 13.19319 36147 ft 398 kts 330°
2026-04-30 14:36 41.79847 13.16247 36144 ft 398 kts 330°
2026-04-30 14:36 41.84889 13.13177 36124 ft 398 kts 330°
2026-04-30 14:37 41.89929 13.10098 36134 ft 398 kts 330°
2026-04-30 14:37 41.94997 13.07053 36132 ft 399 kts 331°
2026-04-30 14:38 42.00109 13.04106 36125 ft 400 kts 332°
2026-04-30 14:38 42.05227 13.01158 36118 ft 400 kts 331°
2026-04-30 14:39 42.10306 12.98197 36117 ft 400 kts 331°
2026-04-30 14:39 42.15416 12.95203 36119 ft 400 kts 331°
2026-04-30 14:40 42.23086 12.90714 36133 ft 400 kts 331°
2026-04-30 14:40 42.28191 12.87706 36137 ft 400 kts 331°
2026-04-30 14:41 42.33298 12.84692 36162 ft 400 kts 331°
2026-04-30 14:41 42.38414 12.81677 36155 ft 401 kts 331°
2026-04-30 14:42 42.43524 12.78666 36150 ft 401 kts 331°
2026-04-30 14:42 42.48631 12.75650 36123 ft 400 kts 332°
2026-04-30 14:43 42.53739 12.72619 36140 ft 401 kts 332°
2026-04-30 14:43 42.58851 12.69577 36133 ft 401 kts 332°
2026-04-30 14:44 42.63967 12.66531 36126 ft 401 kts 332°
2026-04-30 14:44 42.69087 12.63481 36127 ft 402 kts 332°
2026-04-30 14:45 42.74204 12.60428 36158 ft 402 kts 332°
2026-04-30 14:45 42.79325 12.57366 36148 ft 402 kts 332°
2026-04-30 14:46 42.84453 12.54285 36155 ft 403 kts 332°
2026-04-30 14:46 42.88714 12.51721 36153 ft 403 kts 332°
2026-04-30 14:47 42.94720 12.48118 36190 ft 403 kts 332°
2026-04-30 14:47 42.99850 12.45032 36210 ft 403 kts 332°
2026-04-30 14:48 43.04986 12.41929 36206 ft 403 kts 332°
2026-04-30 14:48 43.10119 12.38821 36191 ft 404 kts 332°
2026-04-30 14:49 43.15258 12.35698 36194 ft 404 kts 332°
2026-04-30 14:49 43.20370 12.32596 36211 ft 405 kts 332°
2026-04-30 14:50 43.28097 12.27894 36215 ft 405 kts 332°
2026-04-30 14:51 43.35833 12.23180 36228 ft 406 kts 332°
2026-04-30 14:52 43.42744 12.18944 36247 ft 407 kts 332°
2026-04-30 14:52 43.50514 12.14183 36246 ft 408 kts 332°
2026-04-30 14:53 43.58289 12.09396 36244 ft 408 kts 332°
2026-04-30 14:54 43.68639 12.03014 36239 ft 409 kts 333°
2026-04-30 14:55 43.76432 11.98189 36248 ft 409 kts 333°
2026-04-30 14:56 43.86849 11.91712 36262 ft 410 kts 333°
2026-04-30 14:57 43.94678 11.86832 36264 ft 411 kts 333°
2026-04-30 14:58 44.05120 11.80299 36262 ft 413 kts 333°
2026-04-30 14:58 44.12950 11.75386 36276 ft 414 kts 333°
2026-04-30 15:00 44.26093 11.67089 36252 ft 415 kts 333°
2026-04-30 15:01 44.36606 11.60442 36279 ft 415 kts 333°
2026-04-30 15:01 44.44489 11.55426 36283 ft 415 kts 334°
2026-04-30 15:02 44.49757 11.52072 36277 ft 416 kts 334°
2026-04-30 15:03 44.62959 11.43638 36295 ft 417 kts 335°
2026-04-30 15:04 44.76146 11.35182 36273 ft 418 kts 334°
2026-04-30 15:06 44.89376 11.26643 36292 ft 418 kts 335°